Theta_e
307 307 307 307 310 309 308 308 308 310 311 312 313 313 314 315 315 316 316 316 316 312 312 308 308 308 306 306 304 304 303 301 301 300 298 295 295 291
304 304 305 305 304 307 309 307 307 307 309 308 309 313 312 313 314 314 314 315 316 314 311 308 308 308 306 304 303 302 301 300 301 299 296 293 292 290
303 303 303 304 303 303 303 306 307 306 307 306 308 307 309 312 313 313 313 315 315 314 311 309 308 308 306 303 302 300 301 300 300 298 291 290 290 289
303 302 302 302 303 303 303 303 304 305 304 304 305 305 307 309 310 311 313 313 312 314 311 309 309 308 305 301 300 300 300 299 298 295 290 289 288 289
302 302 301 301 301 302 301 303 303 303 304 302 303 304 304 306 309 310 311 312 312 311 312 309 309 307 304 301 300 300 299 298 296 291 289 288 288 291
301 302 300 300 301 302 301 303 303 303 302 301 301 301 302 305 306 308 307 308 308 309 309 308 308 306 303 301 300 300 297 298 295 289 287 287 290 289
298 298 300 301 301 301 300 302 301 301 300 299 300 300 300 303 305 306 304 305 305 306 305 303 305 303 301 300 299 298 298 297 293 287 286 288 290 287
298 298 297 298 299 299 300 302 301 301 300 299 299 298 299 302 303 305 303 300 300 300 303 301 302 300 299 298 298 298 297 296 288 286 287 292 292 291
298 298 298 297 299 299 301 300 300 300 299 298 298 298 299 300 302 301 301 303 300 300 299 299 298 298 298 297 297 296 295 292 286 288 292 292 292 292
297 297 298 297 299 299 299 299 300 299 297 298 297 298 299 299 300 301 301 297 298 296 296 293 293 295 296 296 296 295 294 287 287 291 291 291 291 290
297 297 297 297 299 299 299 299 299 297 297 297 297 297 297 298 298 297 296 296 295 293 293 293 289 292 291 292 291 290 289 288 290 290 290 289 289 289
296 297 297 298 298 298 299 299 296 296 296 296 296 296 296 296 296 296 296 294 294 290 291 292 289 291 287 289 289 289 290 289 289 288 288 289 288 286
295 295 297 297 297 297 298 297 295 295 295 294 295 295 295 295 295 294 294 295 294 293 291 292 289 289 289 287 287 288 288 287 287 286 287 288 285 281
295 294 295 296 296 297 297 296 295 294 293 294 294 293 293 293 293 293 293 293 294 295 295 293 292 291 290 288 287 287 287 287 286 286 286 282 280 280
294 294 295 296 296 296 296 294 293 293 292 293 293 292 292 292 292 292 291 292 292 292 293 293 291 290 289 289 288 287 286 285 285 285 283 281 281 281
294 294 295 295 295 295 293 293 292 292 292 292 291 290 290 290 291 291 290 290 291 291 290 289 289 290 288 290 290 287 287 286 285 283 281 281 281 280
292 293 294 295 295 293 291 291 291 291 291 291 290 290 289 290 290 289 290 290 291 289 288 288 289 288 289 289 287 287 286 285 282 282 281 280 280 280
292 292 293 294 292 291 290 290 290 290 290 290 290 290 289 289 289 289 290 290 290 288 288 287 287 287 287 285 283 283 282 282 281 281 281 280 279 279
291 291 292 292 291 289 289 289 290 290 290 290 290 290 290 289 289 289 289 289 288 288 288 287 287 286 284 283 281 281 281 281 280 279 279 279 278 278
290 289 290 290 289 289 289 289 289 289 290 290 289 289 289 289 289 288 288 288 288 287 286 283 281 280 280 280 280 280 280 280 280 279 278 278 278 277
289 288 289 289 288 288 288 289 289 289 289 289 289 289 288 288 288 287 287 286 285 282 281 281 281 281 281 280 280 280 279 279 278 278 277 276 276 275
288 288 288 288 288 288 288 288 289 289 289 288 288 287 287 287 287 286 284 282 282 282 281 281 281 280 280 280 279 279 278 278 277 276 276 275 274 273
287 288 288 287 287 288 288 288 288 288 288 288 287 286 284 283 282 281 281 281 281 281 281 280 280 279 279 279 279 278 278 277 276 275 274 273 273 272
Wind_Speed
37 34 30 30 26 22 19 17 17 17 21 24 30 34 39 48 56 55 53 56 53 55 48 51 47 47 41 38 35 34 31 29 27 27 23 20 18 15
25 26 27 29 34 25 22 23 19 20 24 26 29 28 34 41 45 47 54 59 58 57 53 58 53 51 44 41 39 36 32 31 31 31 25 21 20 18
20 22 20 26 34 29 26 24 24 22 25 33 29 29 33 40 44 49 50 55 58 58 58 60 60 56 49 46 42 39 38 38 35 34 24 23 22 13
28 19 19 23 36 36 29 26 28 26 25 33 35 32 34 39 42 46 57 51 55 61 60 62 64 60 52 50 44 44 42 39 40 34 26 22 17 14
18 24 22 32 36 35 32 29 29 30 31 33 39 35 35 37 41 45 55 57 59 61 58 66 67 61 55 48 50 47 41 41 37 30 23 22 18 14
25 26 21 33 40 37 33 30 31 33 34 37 38 38 35 40 41 46 49 52 57 59 59 68 66 60 55 51 48 48 37 40 35 28 26 20 16 17
26 25 28 32 41 40 31 30 31 32 34 37 35 35 37 40 45 46 42 47 48 56 58 58 62 56 53 51 47 45 41 38 35 29 25 21 22 19
30 27 28 31 36 35 29 28 29 32 36 38 41 38 30 36 40 46 47 42 38 45 58 54 56 54 53 48 45 46 37 37 35 29 25 30 26 22
31 33 33 33 34 31 26 26 28 31 33 33 34 26 27 30 42 45 50 55 47 50 54 55 53 52 46 46 46 41 38 33 28 26 24 25 27 24
36 36 35 35 32 27 26 27 29 30 30 29 28 26 22 27 40 48 52 43 36 44 49 42 43 48 49 47 41 39 32 32 25 24 27 28 27 22
35 34 34 34 29 22 25 27 28 29 28 25 23 18 13 25 35 43 41 44 30 38 40 35 38 43 38 37 34 31 34 29 28 28 27 26 22 18
29 31 31 30 23 21 23 24 28 26 20 19 14 9 12 16 27 38 43 41 39 32 37 32 42 41 26 29 29 30 30 28 27 26 25 23 18 14
28 28 27 19 20 20 22 23 23 17 15 16 10 10 10 12 20 30 34 41 41 31 43 41 42 40 26 31 29 27 29 27 24 22 22 18 12 16
29 27 21 19 19 19 21 18 16 14 12 9 9 9 13 17 22 26 30 34 35 32 29 40 38 38 38 27 36 31 28 26 22 19 14 10 14 15
21 21 18 17 18 18 17 15 13 12 12 9 9 12 16 20 23 25 28 31 28 21 17 23 29 32 33 31 33 36 32 25 19 16 13 14 13 11
15 16 15 14 16 15 14 11 9 10 10 9 11 14 15 18 20 22 25 24 19 20 20 22 20 19 25 17 18 29 29 19 21 17 13 13 14 14
15 15 14 15 15 15 12 11 10 10 10 11 14 17 19 19 20 20 20 20 19 24 21 18 15 18 18 16 17 16 23 21 12 16 17 17 15 12
16 16 15 16 15 14 14 14 12 12 13 15 18 19 20 21 22 21 20 19 24 25 24 23 22 23 19 15 9 16 17 16 15 15 16 16 16 17
15 15 16 17 16 15 16 16 16 15 16 17 19 19 19 20 21 21 21 21 23 22 20 19 18 17 20 20 18 16 15 17 17 17 16 13 13 14
12 11 15 16 16 16 18 18 18 18 18 18 18 18 18 20 21 21 20 20 20 20 19 17 15 13 13 16 16 17 14 12 11 9 10 13 16 20
12 11 12 13 15 17 19 18 19 20 19 18 17 17 18 19 20 19 19 18 19 19 19 18 16 14 13 13 13 13 11 9 8 10 12 16 19 22
9 10 10 11 14 18 19 18 19 19 18 16 16 16 16 17 20 21 20 21 18 17 18 17 14 12 9 7 6 6 7 9 11 13 14 16 18 17
8 9 9 10 13 17 19 19 18 17 15 14 15 16 18 21 20 19 18 17 17 16 15 15 13 10 7 7 7 8 10 12 13 14 16 19 22 25
Wind_Direction
277 298 288 303 288 290 290 292 284 286 281 279 266 262 261 257 257 253 255 251 245 231 233 222 227 221 214 206 203 200 198 194 194 195 192 193 193 203
294 298 293 293 300 288 287 288 283 273 275 276 273 274 264 261 259 252 255 251 246 237 228 223 223 216 211 206 207 203 212 200 200 201 195 191 200 208
309 288 287 293 304 299 292 287 286 290 281 286 279 275 263 255 249 251 252 245 244 242 229 225 219 216 214 206 210 212 204 201 203 213 204 208 213 212
295 285 281 303 305 297 293 292 291 288 288 288 286 279 271 268 264 251 248 246 246 243 228 224 217 213 211 205 208 206 208 209 212 214 208 211 208 209
291 277 268 293 299 300 295 291 292 291 285 291 283 278 276 267 265 258 248 243 243 239 236 222 217 212 208 209 204 207 209 220 216 216 214 210 206 219
290 288 300 288 296 300 294 288 288 285 283 287 284 280 277 271 262 245 229 226 221 225 223 218 214 209 205 202 203 207 221 218 220 215 214 204 209 225
298 287 283 276 279 291 289 285 281 284 284 284 274 273 269 255 242 230 217 215 211 213 204 197 201 199 198 201 201 216 213 220 219 214 205 203 220 218
286 288 290 289 284 289 285 277 278 280 285 283 277 271 272 264 242 229 214 198 182 188 194 185 194 194 195 204 207 204 213 219 212 204 206 230 243 233
292 293 294 297 293 292 286 283 280 278 282 271 269 276 277 262 236 214 209 217 199 193 191 180 188 193 206 205 201 210 215 217 203 210 239 243 241 232
282 285 288 291 291 294 287 287 284 287 277 268 273 286 279 267 232 224 217 196 196 185 185 168 185 193 195 199 206 206 215 205 205 229 236 237 233 225
276 271 277 284 288 283 281 283 282 281 277 274 271 289 281 259 240 217 202 194 181 180 182 180 178 184 188 193 199 198 204 212 218 230 231 229 224 223
289 279 270 273 278 279 280 278 275 277 272 266 275 296 271 260 237 223 214 190 180 167 183 181 179 183 173 195 203 202 207 215 223 222 222 225 224 213
297 292 282 274 271 276 275 275 273 266 265 259 273 267 249 236 221 216 213 213 194 184 191 194 190 188 183 186 197 202 207 205 207 211 216 213 208 221
285 290 291 274 274 273 274 271 261 268 254 246 240 220 207 202 202 202 203 202 212 217 211 203 201 203 204 190 192 199 203 206 208 212 198 195 214 217
287 284 280 274 273 273 268 264 263 254 242 223 210 195 191 192 193 193 194 199 203 204 203 210 210 205 205 198 189 192 189 198 204 204 189 208 216 229
291 284 279 272 278 272 259 249 240 234 224 210 187 177 176 180 181 186 185 187 188 165 182 200 207 213 190 196 194 191 196 189 201 195 206 220 223 241
294 289 277 271 265 250 230 223 218 217 197 178 167 161 165 169 170 176 178 175 172 162 160 162 173 187 180 176 166 175 182 195 186 198 204 216 236 245
280 279 273 264 253 235 216 209 205 200 181 166 160 160 163 165 165 167 166 167 163 159 157 154 159 164 162 147 160 175 181 193 192 206 224 235 244 250
268 270 266 257 243 226 216 210 198 193 176 166 162 158 160 162 160 158 158 157 157 157 159 162 165 175 167 163 171 186 207 211 221 225 233 237 240 251
260 264 262 252 238 223 218 208 198 188 178 172 170 167 167 167 166 165 164 163 163 161 158 161 169 175 188 186 179 185 193 195 201 220 241 255 262 273
268 264 266 253 235 223 218 206 198 188 184 183 185 186 185 183 179 176 172 171 169 165 160 154 153 164 169 172 168 170 185 207 243 256 259 263 267 275
272 271 269 249 233 222 214 203 196 194 191 188 185 183 182 181 179 172 167 164 163 159 155 162 164 166 164 166 184 203 222 241 254 264 273 280 285 283
288 285 268 245 231 220 213 208 205 200 193 187 179 172 168 169 172 171 168 167 166 165 171 167 168 177 206 222 230 246 265 275 277 272 272 275 274 273